******** Week 150 almanac for PRN-1 ******** ID: 1 Health: 0 Eccentricity: 0.0114274025 Time of Applicability(s): 233472 Orbital Inclination(rad): 0.9868553809 Rate of Right Ascen(r/s): -7.634603726e-09 SQRT(A) (m 1/2): 5153.629395 Right Ascen at Week(rad): -2.036418294 Argument of Perigee(rad): 0.8820591768 Mean Anom(rad): -2.478791988 Af0(s): 0.0003361387451 Af1(s/s): -1.091394e-11 week: 150 ******** Week 150 almanac for PRN-2 ******** ID: 2 Health: 0 Eccentricity: 0.02063989639 Time of Applicability(s): 233472 Orbital Inclination(rad): 0.9651998865 Rate of Right Ascen(r/s): -7.840326581e-09 SQRT(A) (m 1/2): 5153.652344 Right Ascen at Week(rad): -2.125843083 Argument of Perigee(rad): -1.439511391 Mean Anom(rad): -2.337301361 Af0(s): -0.0005147595581 Af1(s/s): 0 week: 150 ******** Week 150 almanac for PRN-3 ******** ID: 3 Health: 0 Eccentricity: 0.003887653351 Time of Applicability(s): 233472 Orbital Inclination(rad): 0.9725162558 Rate of Right Ascen(r/s): -7.874613723e-09 SQRT(A) (m 1/2): 5153.623047 Right Ascen at Week(rad): -1.001053167 Argument of Perigee(rad): 0.9552685597 Mean Anom(rad): 2.653468808 Af0(s): -0.0001055144043 Af1(s/s): -1.818989e-11 week: 150 ******** Week 150 almanac for PRN-4 ******** ID: 4 Health: 0 Eccentricity: 0.001712799072 Time of Applicability(s): 233472 Orbital Inclination(rad): 0.9615387058 Rate of Right Ascen(r/s): -7.908900866e-09 SQRT(A) (m 1/2): 5153.59375 Right Ascen at Week(rad): 0.08012802578 Argument of Perigee(rad): -3.052153261 Mean Anom(rad): -0.7047095009 Af0(s): -0.0001484738403 Af1(s/s): 3.637979e-12 week: 150 ******** Week 150 almanac for PRN-5 ******** ID: 5 Health: 0 Eccentricity: 0.005858421326 Time of Applicability(s): 233472 Orbital Inclination(rad): 0.9594953954 Rate of Right Ascen(r/s): -8.011762293e-09 SQRT(A) (m 1/2): 5153.615723 Right Ascen at Week(rad): -1.041559848 Argument of Perigee(rad): 1.008494248 Mean Anom(rad): 0.1761902021 Af0(s): -5.727924805e-05 Af1(s/s): 0 week: 150 ******** Week 150 almanac for PRN-6 ******** ID: 6 Health: 0 Eccentricity: 0.002692699432 Time of Applicability(s): 233472 Orbital Inclination(rad): 0.9862322012 Rate of Right Ascen(r/s): -7.646032773e-09 SQRT(A) (m 1/2): 5153.633789 Right Ascen at Week(rad): -2.044691155 Argument of Perigee(rad): -0.9473570987 Mean Anom(rad): -2.1612692 Af0(s): 0.0001658083496 Af1(s/s): 1.091394e-11 week: 150 ******** Week 150 almanac for PRN-7 ******** ID: 7 Health: 0 Eccentricity: 0.01557397842 Time of Applicability(s): 233472 Orbital Inclination(rad): 0.9508487772 Rate of Right Ascen(r/s): -7.863184676e-09 SQRT(A) (m 1/2): 5153.63916 Right Ascen at Week(rad): 1.098767294 Argument of Perigee(rad): -2.289535236 Mean Anom(rad): 3.132940794 Af0(s): 0.0002464515015 Af1(s/s): 3.637979e-12 week: 150 ******** Week 150 almanac for PRN-8 ******** ID: 8 Health: 0 Eccentricity: 0.007330417633 Time of Applicability(s): 233472 Orbital Inclination(rad): 0.9649182572 Rate of Right Ascen(r/s): -8.103194673e-09 SQRT(A) (m 1/2): 5153.67334 Right Ascen at Week(rad): -3.11604004 Argument of Perigee(rad): 0.111792595 Mean Anom(rad): -0.2245753867 Af0(s): -4.522045898e-05 Af1(s/s): 0 week: 150 ******** Week 150 almanac for PRN-9 ******** ID: 9 Health: 0 Eccentricity: 0.002237319946 Time of Applicability(s): 233472 Orbital Inclination(rad): 0.9545339263 Rate of Right Ascen(r/s): -7.988904198e-09 SQRT(A) (m 1/2): 5153.558594 Right Ascen at Week(rad): 0.0271326597 Argument of Perigee(rad): 1.873673269 Mean Anom(rad): 0.149462759 Af0(s): -0.0002788594971 Af1(s/s): 0 week: 150 ******** Week 150 almanac for PRN-10 ******** ID: 10 Health: 0 Eccentricity: 0.007529735565 Time of Applicability(s): 233472 Orbital Inclination(rad): 0.9723364924 Rate of Right Ascen(r/s): -7.828897533e-09 SQRT(A) (m 1/2): 5153.62793 Right Ascen at Week(rad): -1.003841747 Argument of Perigee(rad): -2.509836374 Mean Anom(rad): 1.767609134 Af0(s): -0.0002592639648 Af1(s/s): -1.091394e-11 week: 150 ******** Week 150 almanac for PRN-11 ******** ID: 11 Health: 255 Eccentricity: 0.0002708435059 Time of Applicability(s): 233472 Orbital Inclination(rad): 0.9619521615 Rate of Right Ascen(r/s): -7.874613723e-09 SQRT(A) (m 1/2): 5153.729004 Right Ascen at Week(rad): -1.992815939 Argument of Perigee(rad): 2.83710346 Mean Anom(rad): -0.331695632 Af0(s): -6.406231689e-05 Af1(s/s): 1.091394e-11 week: 150 ******** Week 150 almanac for PRN-12 ******** ID: 12 Health: 0 Eccentricity: 0.008702754974 Time of Applicability(s): 233472 Orbital Inclination(rad): 0.9700594897 Rate of Right Ascen(r/s): -7.988904198e-09 SQRT(A) (m 1/2): 5153.547852 Right Ascen at Week(rad): 2.211866973 Argument of Perigee(rad): 1.248239041 Mean Anom(rad): 2.485595658 Af0(s): -0.0001379223999 Af1(s/s): -7.275958e-12 week: 150 ******** Week 150 almanac for PRN-13 ******** ID: 13 Health: 0 Eccentricity: 0.005812168121 Time of Applicability(s): 233472 Orbital Inclination(rad): 0.9689749173 Rate of Right Ascen(r/s): -7.806039438e-09 SQRT(A) (m 1/2): 5153.620605 Right Ascen at Week(rad): 0.1800318952 Argument of Perigee(rad): 0.9552550775 Mean Anom(rad): -0.7809988297 Af0(s): 0.0002102751343 Af1(s/s): 7.275958e-12 week: 150 ******** Week 150 almanac for PRN-14 ******** ID: 14 Health: 0 Eccentricity: 0.001453399658 Time of Applicability(s): 233472 Orbital Inclination(rad): 0.9534553461 Rate of Right Ascen(r/s): -8.137481816e-09 SQRT(A) (m 1/2): 5153.596191 Right Ascen at Week(rad): 2.180448454 Argument of Perigee(rad): 3.022232396 Mean Anom(rad): 2.545705534 Af0(s): -6.858436279e-05 Af1(s/s): -3.637979e-12 week: 150 ******** Week 150 almanac for PRN-15 ******** ID: 15 Health: 0 Eccentricity: 0.01394224167 Time of Applicability(s): 233472 Orbital Inclination(rad): 0.9303677368 Rate of Right Ascen(r/s): -8.263201338e-09 SQRT(A) (m 1/2): 5153.677734 Right Ascen at Week(rad): -0.07906068075 Argument of Perigee(rad): 1.076781485 Mean Anom(rad): -1.214947239 Af0(s): -6.481599121e-05 Af1(s/s): 3.637979e-12 week: 150 ******** Week 150 almanac for PRN-16 ******** ID: 16 Health: 0 Eccentricity: 0.01278018951 Time of Applicability(s): 233472 Orbital Inclination(rad): 0.9700115528 Rate of Right Ascen(r/s): -7.988904198e-09 SQRT(A) (m 1/2): 5153.558594 Right Ascen at Week(rad): 2.230482593 Argument of Perigee(rad): 0.7097638478 Mean Anom(rad): 0.6307312551 Af0(s): -0.0003738224609 Af1(s/s): -3.637979e-12 week: 150 ******** Week 150 almanac for PRN-17 ******** ID: 17 Health: 0 Eccentricity: 0.0135807991 Time of Applicability(s): 233472 Orbital Inclination(rad): 0.9800543333 Rate of Right Ascen(r/s): -7.897471818e-09 SQRT(A) (m 1/2): 5153.716797 Right Ascen at Week(rad): -3.034078803 Argument of Perigee(rad): -1.496701235 Mean Anom(rad): -0.3123010365 Af0(s): 0.0004574803101 Af1(s/s): 3.637979e-12 week: 150 ******** Week 150 almanac for PRN-18 ******** ID: 18 Health: 0 Eccentricity: 0.002106189728 Time of Applicability(s): 233472 Orbital Inclination(rad): 0.9706467167 Rate of Right Ascen(r/s): -7.817468486e-09 SQRT(A) (m 1/2): 5153.575195 Right Ascen at Week(rad): -2.028709816 Argument of Perigee(rad): 3.100477775 Mean Anom(rad): -2.268391318 Af0(s): 0.0001854038818 Af1(s/s): -7.275958e-12 week: 150 ******** Week 150 almanac for PRN-19 ******** ID: 19 Health: 0 Eccentricity: 0.008990764618 Time of Applicability(s): 233472 Orbital Inclination(rad): 0.978813966 Rate of Right Ascen(r/s): -7.920329913e-09 SQRT(A) (m 1/2): 5153.640137 Right Ascen at Week(rad): -2.989225219 Argument of Perigee(rad): 2.00975639 Mean Anom(rad): 2.103595493 Af0(s): 9.64703125e-05 Af1(s/s): 3.637979e-12 week: 150 ******** Week 150 almanac for PRN-20 ******** ID: 20 Health: 0 Eccentricity: 0.005138874054 Time of Applicability(s): 233472 Orbital Inclination(rad): 0.9416688609 Rate of Right Ascen(r/s): -8.160339911e-09 SQRT(A) (m 1/2): 5153.695801 Right Ascen at Week(rad): -1.15575528 Argument of Perigee(rad): 3.140087886 Mean Anom(rad): -1.473278442 Af0(s): 0.0004084914795 Af1(s/s): 0 week: 150 ******** Week 150 almanac for PRN-21 ******** ID: 21 Health: 0 Eccentricity: 0.02458190918 Time of Applicability(s): 233472 Orbital Inclination(rad): 0.9594474585 Rate of Right Ascen(r/s): -7.851755628e-09 SQRT(A) (m 1/2): 5153.533691 Right Ascen at Week(rad): -2.127521998 Argument of Perigee(rad): -0.9996259212 Mean Anom(rad): -0.1190205807 Af0(s): 0.0001251099365 Af1(s/s): 0 week: 150 ******** Week 150 almanac for PRN-22 ******** ID: 22 Health: 0 Eccentricity: 0.01294231415 Time of Applicability(s): 233472 Orbital Inclination(rad): 0.9616825165 Rate of Right Ascen(r/s): -7.886042771e-09 SQRT(A) (m 1/2): 5153.603027 Right Ascen at Week(rad): 0.1284259502 Argument of Perigee(rad): -1.871365557 Mean Anom(rad): -0.4295427088 Af0(s): 0.0001718377441 Af1(s/s): 7.275958e-12 week: 150 ******** Week 150 almanac for PRN-23 ******** ID: 23 Health: 0 Eccentricity: 0.00199174881 Time of Applicability(s): 233472 Orbital Inclination(rad): 0.9673810154 Rate of Right Ascen(r/s): -7.897471818e-09 SQRT(A) (m 1/2): 5153.649902 Right Ascen at Week(rad): -1.028739723 Argument of Perigee(rad): 2.976945883 Mean Anom(rad): 3.07481206 Af0(s): -7.536743164e-07 Af1(s/s): -3.637979e-12 week: 150 ******** Week 150 almanac for PRN-24 ******** ID: 24 Health: 0 Eccentricity: 0.01235437393 Time of Applicability(s): 233472 Orbital Inclination(rad): 0.9343884443 Rate of Right Ascen(r/s): -8.023191341e-09 SQRT(A) (m 1/2): 5153.640137 Right Ascen at Week(rad): 1.015882148 Argument of Perigee(rad): 0.8082734275 Mean Anom(rad): -2.183324668 Af0(s): 0.0002155508545 Af1(s/s): -3.637979e-12 week: 150 ******** Week 150 almanac for PRN-25 ******** ID: 25 Health: 0 Eccentricity: 0.01052713394 Time of Applicability(s): 233472 Orbital Inclination(rad): 0.9574640693 Rate of Right Ascen(r/s): -8.091765626e-09 SQRT(A) (m 1/2): 5153.65625 Right Ascen at Week(rad): 2.135034983 Argument of Perigee(rad): 0.9823184534 Mean Anom(rad): 2.225572057 Af0(s): 0.0002283633179 Af1(s/s): 3.637979e-12 week: 150 ******** Week 150 almanac for PRN-26 ******** ID: 26 Health: 0 Eccentricity: 0.006902694702 Time of Applicability(s): 233472 Orbital Inclination(rad): 0.9382953016 Rate of Right Ascen(r/s): -8.263201338e-09 SQRT(A) (m 1/2): 5153.648438 Right Ascen at Week(rad): 2.087886795 Argument of Perigee(rad): 0.3719394083 Mean Anom(rad): 1.572489474 Af0(s): 0.0001462128174 Af1(s/s): 3.637979e-12 week: 150 ******** Week 150 almanac for PRN-27 ******** ID: 27 Health: 0 Eccentricity: 0.01028680801 Time of Applicability(s): 233472 Orbital Inclination(rad): 0.9736247966 Rate of Right Ascen(r/s): -8.011762293e-09 SQRT(A) (m 1/2): 5153.603027 Right Ascen at Week(rad): -3.096564551 Argument of Perigee(rad): 0.6418361375 Mean Anom(rad): -0.259627372 Af0(s): 0.000102499707 Af1(s/s): 1.455192e-11 week: 150 ******** Week 150 almanac for PRN-29 ******** ID: 29 Health: 0 Eccentricity: 0.001857757568 Time of Applicability(s): 233472 Orbital Inclination(rad): 0.9820676831 Rate of Right Ascen(r/s): -7.897471818e-09 SQRT(A) (m 1/2): 5153.702637 Right Ascen at Week(rad): -3.021054946 Argument of Perigee(rad): 2.244582034 Mean Anom(rad): -0.1246524174 Af0(s): -0.0003821128784 Af1(s/s): -3.637979e-12 week: 150 ******** Week 150 almanac for PRN-30 ******** ID: 30 Health: 0 Eccentricity: 0.005532741547 Time of Applicability(s): 233472 Orbital Inclination(rad): 0.9360123067 Rate of Right Ascen(r/s): -8.023191341e-09 SQRT(A) (m 1/2): 5153.521484 Right Ascen at Week(rad): 1.111790402 Argument of Perigee(rad): -2.740787368 Mean Anom(rad): -3.108948001 Af0(s): -0.0004069841309 Af1(s/s): -3.637979e-12 week: 150 ******** Week 150 almanac for PRN-31 ******** ID: 31 Health: 0 Eccentricity: 0.01045799255 Time of Applicability(s): 233472 Orbital Inclination(rad): 0.9550612322 Rate of Right Ascen(r/s): -7.828897533e-09 SQRT(A) (m 1/2): 5153.643066 Right Ascen at Week(rad): 1.116891936 Argument of Perigee(rad): 0.3772349376 Mean Anom(rad): 2.680243813 Af0(s): -0.0001311393311 Af1(s/s): 0 week: 150 ******** Week 150 almanac for PRN-32 ******** ID: 32 Health: 0 Eccentricity: 0.005609512329 Time of Applicability(s): 233472 Orbital Inclination(rad): 0.9583868546 Rate of Right Ascen(r/s): -7.943188008e-09 SQRT(A) (m 1/2): 5153.719727 Right Ascen at Week(rad): 0.03836300197 Argument of Perigee(rad): -2.349081854 Mean Anom(rad): 0.377388111 Af0(s): -5.727924805e-05 Af1(s/s): -7.275958e-12 week: 150